This demonstration page uses our WeatherBlox Daily Observations layout. Learn more.

Left ArrowRight Arrow

Hourly Observations for April 18, 2021

Temp ( °F °C ) Dew Point ( °F °C ) Humidity (%) Winds ( mph kmh ) Pressure ( in mb ) Visibility ( mi km ) Precip ( " mm )
12:53 am 00:53 Mostly Clear 38 3.3 35 1.7 89 89 W 6 9 30.16 1022 10 16 0.00 0.00
1:53 am 01:53 Mostly Cloudy 38 3.3 35 1.7 89 89 WNW 8 13 30.16 1021 10 16 0.00 0.00
2:53 am 02:53 Mostly Clear 36 2.2 33 0.6 89 89 WNW 7 11 30.14 1021 10 16 0.00 0.00
3:53 am 03:53 Clear 35 1.7 32 0 89 89 WNW 7 11 30.13 1020 10 16 0.00 0.00
4:53 am 04:53 Clear 34 1.1 31 -0.6 89 89 WNW 9 15 30.12 1020 10 16 0.00 0.00
5:53 am 05:53 Cloudy 37 2.8 33 0.6 86 86 WNW 9 15 30.11 1020 10 16 0.00 0.00
6:53 am 06:53 Cloudy 36 2.2 32 0 86 86 WNW 8 13 30.12 1020 10 16 0.00 0.00
7:53 am 07:53 Sunny 38 3.3 33 0.6 83 83 WNW 9 15 30.12 1020 10 16 0.00 0.00
8:53 am 08:53 Sunny 42 5.6 35 1.7 76 76 WNW 12 19 30.11 1020 10 16 0.00 0.00
9:53 am 09:53 Sunny 48 8.9 36 2.2 63 63 WNW 10 17 30.10 1019 10 16 0.00 0.00
10:53 am 10:53 Sunny 52 11.1 27 -2.8 38 38 W 8 13 30.09 1019 10 16 0.00 0.00
11:53 am 11:53 Sunny 53 11.7 32 0 45 45 NW 12 19 30.07 1018 10 16 0.00 0.00
12:53 pm 12:53 Sunny 55 12.8 31 -0.6 40 40 WNW 8 13 30.05 1018 10 16 0.00 0.00
1:53 pm 13:53 Sunny 56 13.3 31 -0.6 39 39 WNW 9 15 30.03 1017 10 16 0.00 0.00
2:53 pm 14:53 Sunny 59 15 30 -1.1 33 33 NW 8 13 30.01 1016 10 16 0.00 0.00
4:53 pm 16:53 Sunny 63 17.2 33 0.6 33 33 NNW 8 13 29.96 1015 10 16 0.00 0.00
5:31 pm 17:31 Hazy 63 17.2 31 -0.6 30 30 NW 9 15 29.91 1013 1 2 0.00 0.00
5:41 pm 17:41 Sunny 63 17.2 30 -1.1 29 29 WNW 6 9 29.90 1012 10 16 0.00 0.00
5:53 pm 17:53 Sunny 63 17.2 31 -0.6 30 30 NW 7 11 29.95 1014 10 16 0.00 0.00
6:53 pm 18:53 Sunny 63 17.2 32 0 31 31 W 6 9 29.94 1014 10 16 0.00 0.00
7:53 pm 19:53 Sunny 59 15 35 1.7 41 41 SW 6 9 29.93 1014 10 16 0.00 0.00
8:53 pm 20:53 Clear 57 13.9 34 1.1 42 42 S 6 9 29.92 1013 10 16 0.00 0.00
9:53 pm 21:53 Clear 54 12.2 35 1.7 49 49 S 6 9 29.93 1014 10 16 0.00 0.00
10:53 pm 22:53 Mostly Clear 53 11.7 33 0.6 47 47 SSW 9 15 29.93 1014 10 16 0.00 0.00
11:53 pm 23:53 Mostly Cloudy 50 10 34 1.1 54 54 SW 6 9 29.93 1014 10 16 0.00 0.00

Powered by AerisWeather